B32MU CYVR-RJAA

Flight info

Callsign B32MU
Flight time N/A
Altitude 31000
Route IKNOS DCT ORNAI DCT 52N140W 54N150W 56N160W DCT SRI DCT POOFF DCT ONEIL DCT HEDMI M523 IGPAK M523 IPGUD Y802 OLDIV Y809 SUPOK
Aircraft A339/H-SDE2E3GHIJ1J3J4J5LM1ORWXYZ/LB2D1

Departure

Time N/A
Airport Vancouver International Airport (CYVR)

Arrival

Time 2026-05-06 14:17
Airport Narita International Airport (RJAA)
Time Latitude Longitude Altitude Speed Heading
2026-05-06 14:05 35.84217 140.85341 9248 ft 296 kts 296°
2026-05-06 14:05 35.85233 140.83160 9108 ft 288 kts 296°
2026-05-06 14:06 35.86218 140.81047 8973 ft 281 kts 296°
2026-05-06 14:06 35.87186 140.78969 8835 ft 275 kts 296°
2026-05-06 14:06 35.88131 140.76933 8610 ft 272 kts 296°
2026-05-06 14:06 35.89072 140.74905 8311 ft 273 kts 296°
2026-05-06 14:07 35.90001 140.72903 8046 ft 272 kts 296°
2026-05-06 14:07 35.90943 140.70872 7762 ft 272 kts 296°
2026-05-06 14:07 35.91882 140.68846 7474 ft 272 kts 296°
2026-05-06 14:07 35.92825 140.66812 7185 ft 272 kts 296°
2026-05-06 14:08 35.93763 140.64787 6930 ft 271 kts 297°
2026-05-06 14:08 35.94711 140.62740 6643 ft 271 kts 296°
2026-05-06 14:08 35.95645 140.60716 6360 ft 272 kts 297°
2026-05-06 14:08 35.96587 140.58681 6086 ft 271 kts 297°
2026-05-06 14:09 35.97514 140.56680 5988 ft 268 kts 296°
2026-05-06 14:09 35.98289 140.54591 5984 ft 267 kts 285°
2026-05-06 14:09 35.98728 140.52371 5968 ft 265 kts 277°
2026-05-06 14:09 35.99032 140.50133 5761 ft 264 kts 276°
2026-05-06 14:10 35.99321 140.47885 5468 ft 265 kts 276°
2026-05-06 14:10 35.99608 140.45659 5220 ft 264 kts 276°
2026-05-06 14:10 35.99903 140.43419 4970 ft 263 kts 276°
2026-05-06 14:10 36.00200 140.41185 4738 ft 262 kts 276°
2026-05-06 14:11 36.00471 140.39168 4632 ft 256 kts 277°
2026-05-06 14:11 36.00736 140.37196 4526 ft 251 kts 276°
2026-05-06 14:11 36.01018 140.35083 4413 ft 246 kts 276°
2026-05-06 14:11 36.01100 140.32991 4284 ft 236 kts 255°
2026-05-06 14:12 36.00481 140.31195 4177 ft 226 kts 233°
2026-05-06 14:12 35.99562 140.29656 4077 ft 221 kts 231°
2026-05-06 14:12 35.98649 140.28166 3970 ft 215 kts 231°
2026-05-06 14:12 35.97715 140.26929 3841 ft 209 kts 208°
2026-05-06 14:13 35.96514 140.26538 3726 ft 205 kts 177°
2026-05-06 14:13 35.94957 140.27252 3586 ft 203 kts 152°
2026-05-06 14:13 35.93847 140.28091 3417 ft 195 kts 151°
2026-05-06 14:13 35.92955 140.28789 3277 ft 188 kts 152°
2026-05-06 14:14 35.91877 140.29610 3081 ft 183 kts 153°
2026-05-06 14:14 35.90695 140.30476 2874 ft 179 kts 153°
2026-05-06 14:14 35.89637 140.31238 2652 ft 174 kts 153°
2026-05-06 14:15 35.87935 140.32463 2324 ft 156 kts 153°
2026-05-06 14:15 35.87047 140.33102 2149 ft 148 kts 153°
2026-05-06 14:15 35.86109 140.33777 1825 ft 148 kts 153°
2026-05-06 14:15 35.85215 140.34421 1513 ft 147 kts 152°
2026-05-06 14:16 35.84337 140.35054 1204 ft 147 kts 152°
2026-05-06 14:16 35.83454 140.35692 903 ft 146 kts 151°
2026-05-06 14:16 35.82584 140.36320 644 ft 143 kts 150°
2026-05-06 14:16 35.81717 140.36948 457 ft 142 kts 150°
2026-05-06 14:17 35.80871 140.37558 269 ft 141 kts 149°
2026-05-06 14:17 35.80025 140.38170 155 ft 138 kts 149°
2026-05-06 14:17 35.79281 140.38704 142 ft 90 kts 152°
2026-05-06 14:17 35.78991 140.38911 142 ft 16 kts 148°
2026-05-06 14:18 35.78892 140.38985 142 ft 16 kts 149°
2026-05-06 14:18 35.78786 140.39044 142 ft 16 kts 163°
2026-05-06 14:18 35.78678 140.39072 145 ft 15 kts 172°
2026-05-06 14:18 35.78573 140.39087 145 ft 15 kts 175°
2026-05-06 14:19 35.78464 140.39110 145 ft 16 kts 166°
2026-05-06 14:19 35.78352 140.39142 145 ft 16 kts 167°
2026-05-06 14:19 35.78254 140.39171 146 ft 12 kts 165°
2026-05-06 14:19 35.78173 140.39188 148 ft 9 kts 188°
2026-05-06 14:20 35.78122 140.39157 149 ft 7 kts 221°
2026-05-06 14:20 35.78087 140.39121 150 ft 7 kts 197°
2026-05-06 14:20 35.78043 140.39131 150 ft 6 kts 159°
2026-05-06 14:20 35.77999 140.39154 151 ft 6 kts 147°
2026-05-06 14:21 35.77961 140.39198 151 ft 8 kts 124°
2026-05-06 14:21 35.77956 140.39209 151 ft 8 kts 117°
2026-05-06 14:25 35.77953 140.39217 151 ft 8 kts 117°
2026-05-06 14:25 35.77922 140.39291 150 ft 11 kts 115°
2026-05-06 14:25 35.77886 140.39384 150 ft 12 kts 115°
2026-05-06 14:25 35.77847 140.39484 151 ft 13 kts 116°
2026-05-06 14:26 35.77805 140.39575 150 ft 9 kts 133°
2026-05-06 14:26 35.77758 140.39595 151 ft 6 kts 174°
2026-05-06 14:26 35.77709 140.39600 151 ft 8 kts 176°
2026-05-06 14:26 35.77652 140.39616 151 ft 9 kts 161°
2026-05-06 14:27 35.77589 140.39647 151 ft 9 kts 171°
2026-05-06 14:27 35.77531 140.39613 151 ft 9 kts 231°
2026-05-06 14:27 35.77498 140.39558 151 ft 7 kts 226°
2026-05-06 14:27 35.77451 140.39522 151 ft 9 kts 202°
2026-05-06 14:28 35.77417 140.39522 151 ft 8 kts 158°
2026-05-06 14:28 35.77382 140.39542 151 ft 9 kts 158°
2026-05-06 14:28 35.77346 140.39551 151 ft 9 kts 175°
2026-05-06 14:28 35.77302 140.39552 151 ft 7 kts 191°
2026-05-06 14:29 35.77275 140.39537 151 ft 8 kts 211°
2026-05-06 14:29 35.77251 140.39517 151 ft 5 kts 218°
2026-05-06 14:29 35.77243 140.39494 151 ft 3 kts 268°
2026-05-06 14:29 35.77255 140.39473 152 ft 4 kts 322°
2026-05-06 14:30 35.77274 140.39455 152 ft 5 kts 324°
2026-05-06 14:30 35.77296 140.39436 153 ft 5 kts 326°
2026-05-06 14:30 35.77311 140.39424 153 ft 0 kts 329°
2026-05-06 14:30 35.77315 140.39421 153 ft 1 kts 328°
2026-05-06 14:31 35.77319 140.39420 153 ft 0 kts 328°